Starlink 31157

operational
NORAD ID: 58735 Int'l Des: 2024-005 Owner: SPXS Country: US Constellation: starlink
LEOCIRCULAR

Über Starlink 31157

Beschreibung wird geladen...

Live-Position

3D-Globus wird geladen...

Nächste Überflüge

Höhenverlauf

Altitude vs Time

uPlot chart will show altitude changes over time

Zweizeiliger Elementsatz

1 58735U 24005H 25257.29724239 .00000381 00000-0 43297-4 0 9999
2 58735 43.0035 100.4269 0001430 267.4678 92.6001 15.02535649 93881
Epoch: 14. Sept. 2025 • Age: 28 hours

Aktueller Status

Höhe 562.3 km
Geschwindigkeit 7.58 km/s
Subsatellitenpunkt -17.28°S, 131.27°E
Startdatum 7. Jan. 2024
Alter 1.6 years
Typ internet

Technische Details

Klassifizierung Payload
Masse 730.00 kg
Trockenmasse 700.00 kg
Gesamtmasse 730.00 kg
Länge 0.30 m
Durchmesser 4.10 m
Spannweite 29.00 m
Form Box + pan
Hersteller SPXS
Bus-Typ Starlink V2M
Phasenstatus In Orbit
Besitzer/Staat SPXS/US

Große Konstellationen

Loading constellations...